This demonstration page uses our WeatherBlox Daily Observations layout. Learn more.

Left ArrowRight Arrow

47.50024, -111.30081

Hourly Observations for January 13, 2020

Temp ( °F °C ) Dew Point ( °F °C ) Humidity (%) Winds ( mph kmh ) Pressure ( in mb ) Visibility ( mi km ) Precip ( " mm )
12:05 am 00:05 Cloudy with Light Snow -5 -20.6 -10 -23.3 79 79 ENE 10 17 30.17 1022 2 3 0.00 0.00
12:50 am 00:50 Cloudy with Light Snow -6 -21 -11 -24 77 77 ENE 10 17 30.19 1022 3 5 0.00 0.00
12:53 am 00:53 Cloudy with Light Snow -6 -21.1 -12 -24.4 75 75 ENE 9 15 30.01 1016 3 5 0.00 0.00
1:05 am 01:05 Cloudy with Light Snow -6 -21.1 -11 -23.9 78 78 NE 9 15 30.18 1022 2 3 0.00 0.00
1:20 am 01:20 Cloudy with Haze -6 -21.1 -12 -24.4 75 75 ENE 9 15 30.19 1022 5 8 0.00 0.00
1:53 am 01:53 Cloudy -7 -21.7 -12 -24.4 79 79 NNE 8 13 30.01 1016 8 13 0.00 0.00
2:53 am 02:53 Cloudy with Light Snow -7 -21.7 -13 -25 75 75 NNE 7 11 30.04 1017 3 5 0.00 0.00
2:57 am 02:57 Cloudy with Light Snow -7 -21.7 -13 -25 75 75 NNE 7 11 30.22 1023 2 3 0.00 0.00
3:05 am 03:05 Cloudy with Light Snow -7 -21.7 -13 -25 75 75 NE 7 11 30.22 1023 3 5 0.00 0.00
3:53 am 03:53 Cloudy with Light Snow -7 -21.7 -13 -25 75 75 NNE 6 9 30.05 1018 2 3 0.01 0.25
4:06 am 04:06 Cloudy with Light Snow -7 -21.7 -13 -25 75 75 NNE 7 11 30.23 1024 2 3 0.00 0.00
4:30 am 04:30 Cloudy with Light Snow -7 -21.7 -13 -25 75 75 NNE 8 13 30.23 1024 5 8 0.00 0.00
4:53 am 04:53 Cloudy with Light Snow -7 -21.7 -14 -25.6 71 71 NNE 7 11 30.06 1018 5 8 0.00 0.00
5:12 am 05:12 Cloudy with Light Snow -8 -22.2 -14 -25.6 74 74 NNE 7 11 30.24 1024 3 4 0.00 0.00
5:39 am 05:39 Mostly Cloudy with Light Snow -8 -22.2 -14 -25.6 74 74 NNE 7 11 30.25 1024 5 8 0.00 0.00
5:46 am 05:46 Mostly Cloudy -8 -22.2 -15 -26.1 71 71 NNE 6 9 30.25 1024 8 13 0.00 0.00
5:53 am 05:53 Mostly Cloudy -9 -22.8 -15 -26.1 75 75 NNE 6 9 30.07 1018 10 16 0.00 0.00
6:53 am 06:53 Clear -9 -22.8 -15 -26.1 75 75 NE 5 7 30.08 1019 10 16 0.00 0.00
7:40 am 07:40 Partly Cloudy -12 -24.4 -17 -27.2 78 78 NNE 5 7 30.31 1027 9 14 0.00 0.00
7:53 am 07:53 Mostly Clear -12 -24.4 -18 -27.8 73 73 NE 6 9 30.09 1019 10 16 0.00 0.00
8:53 am 08:53 Mostly Sunny -9 -22.8 -16 -26.7 71 71 NE 3 6 30.11 1020 10 16 0.00 0.00
9:53 am 09:53 Mostly Sunny -9 -22.8 -15 -26.1 75 75 N 8 13 30.10 1019 10 16 0.00 0.00
10:54 am 10:54 Mostly Sunny -6 -21.1 -13 -25 71 71 N 5 7 30.11 1020 N/A 0.00 0.00
11:26 am 11:26 Partly Cloudy -4 -20 -13 -25 65 65 NNE 6 9 30.24 1024 8 13 0.00 0.00
11:35 am 11:35 Mostly Cloudy with Haze -6 -21.1 -13 -25 71 71 VRB 6 9 30.26 1025 5 8 0.00 0.00
11:51 am 11:51 Cloudy with Haze -6 -21 -15 -26 64 64 N 6 9 30.26 1025 4 6 0.00 0.00
11:53 am 11:53 Cloudy with Haze -6 -21.1 -14 -25.6 67 67 N 6 9 30.11 1020 4 6 0.00 0.00
12:38 pm 12:38 Mostly Cloudy -4 -20 -13 -25 65 65 Calm 30.24 1024 10 16 0.00 0.00
12:53 pm 12:53 Cloudy with Haze -3 -19.4 -12 -24.4 65 65 N 8 13 30.10 1019 4 6 0.00 0.00
1:31 pm 13:31 Cloudy with Haze -4 -20 -12 -24.4 68 68 NE 7 11 30.23 1024 3 5 0.00 0.00
1:53 pm 13:53 Mostly Cloudy -3 -19.4 -13 -25 61 61 N 3 6 30.10 1019 10 16 0.00 0.00
2:53 pm 14:53 Cloudy with Haze -2 -18.9 -12 -24.4 62 62 NE 7 11 30.12 1020 5 8 0.00 0.00
3:53 pm 15:53 Mostly Cloudy -4 -20 -13 -25 65 65 NNE 6 9 30.14 1021 10 16 0.00 0.00
4:21 pm 16:21 Mostly Cloudy -5 -20.6 -14 -25.6 64 64 NE 8 13 30.30 1026 10 16 0.00 0.00
4:53 pm 16:53 Sunny -5 -20.6 -14 -25.6 64 64 N 6 9 30.16 1021 10 16 0.00 0.00
5:23 pm 17:23 Mostly Cloudy with Haze -7 -21.7 -14 -25.6 71 71 NNE 8 13 30.34 1027 5 8 0.00 0.00
5:53 pm 17:53 Partly Cloudy -8 -22.2 -15 -26.1 71 71 NNE 7 11 30.18 1022 9 14 0.00 0.00
6:23 pm 18:23 Mostly Cloudy -8 -22.2 -16 -26.7 67 67 NNE 7 11 30.33 1027 8 13 0.00 0.00
6:41 pm 18:41 Partly Cloudy -8 -22.2 -16 -26.7 67 67 NNE 7 11 30.33 1027 9 14 0.00 0.00
6:53 pm 18:53 Partly Cloudy -8 -22.2 -16 -26.7 67 67 NNE 7 11 30.17 1022 10 16 0.00 0.00
7:53 pm 19:53 Mostly Clear -9 -22.8 -16 -26.7 71 71 NE 9 15 30.18 1022 10 16 0.00 0.00
8:53 pm 20:53 Cloudy -8 -22.2 -16 -26.7 67 67 NE 13 20 30.17 1022 10 16 0.00 0.00
9:30 pm 21:30 Cloudy -9 -22.8 -14 -25.6 78 78 ENE 10 17 30.34 1028 8 13 0.00 0.00
9:53 pm 21:53 Cloudy -9 -22.8 -15 -26.1 75 75 ENE 10 17 30.19 1022 10 16 0.00 0.00
10:07 pm 22:07 Cloudy -9 -22.8 -15 -26.1 75 75 ENE 9 15 30.36 1028 8 13 0.00 0.00
10:50 pm 22:50 Cloudy -9 -23 -15 -26 77 77 NE 8 13 30.37 1028 7 11 0.00 0.00
10:53 pm 22:53 Cloudy -9 -22.8 -15 -26.1 75 75 ENE 9 15 30.19 1022 8 13 0.00 0.00
11:53 pm 23:53 Cloudy -9 -22.8 -15 -26.1 75 75 NNE 7 11 30.20 1023 10 16 0.00 0.00

Powered by AerisWeather